Joplin Regional Airport Joplin US
ICAO: KJLN
IATA: JLN
Category: Large
Scheduled Services: Yes

Elevation: 981 ft
TransAlt. 18000 ft.

Airport Communications:
ATIS:120.85
KANSAS CITY CNTR:128.6
CTAF:119.8
GND:121.6
COLUMBIA RDO:122.6
TWR:119.8
UNICOM:122.95

KJLN Zoom In..

Runways:

(A) RW 05 length 3604 ft width 75 ft
---- / hdg 46

(B) RW 13 length 6501 ft width 150 ft
ILS 110.30 / hdg 134

(C) RW 18 length 6500 ft width 100 ft
ILS 108.90 / hdg 178

(D) RW 23 length 3604 ft width 75 ft
---- / hdg 226

(E) RW 31 length 6501 ft width 150 ft
---- / hdg 314

(F) RW 36 length 6500 ft width 100 ft
---- / hdg 358

Location; KJLN
Day. 22 / Time. 01.53 Zulu
* Altimeter: 30.01
* Temperature: 21° c. 69.8°f.
* Wind from: 360° Speed 07 kn.
Dewpoint: 17° c.
Visibility: 10 Statute Miles.
Clouds: Clear (automated report).

KJLN 220153Z 36007KT 10SM CLR 21/17 A3001 RMK AO2 SLP154 T02060172


Wind From 360°
Speed 07 kn.

 
 
jpsmedia.com for Web Design SOUNDCLOUD worldairports.se 2018   terms of use